User: anonymous   Login
Location: Freistadt
(48.5112°N, 14.5013°E)
Time: 20:53:25
(UTC+02:00)
Language:

AO-109 - Orbit

View from above orbital plane
View from above orbital plane
View from above satellite
View from above satellite

Ground track
Ground track

The orbit data is extracted from the following two-line orbital elements,

1 47311U 21002C   23086.92095859  .00030113  00000-0  88932-3 0  9998
2 47311  60.6840   9.9513 0030212 131.3871 228.9827 15.34385785121798
Epoch (UTC): 27 March 2023 22:06:10
Eccentricity: 0.0030212
inclination: 60.6840°
perigee height: 442 km
apogee height: 483 km
right ascension of ascending node: 9.9513°
argument of perigee: 131.3871°
revolutions per day: 15.34385785
mean anomaly at epoch: 228.9827°
orbit number at epoch: 12179

The dashed part of the orbit path shows where the satellite is in the earth's shadow,  

DLR